WA0SOP Weather Reports


Display with metric or nautical units.
time (UTC)temp
F
wind
direction
speed
MPH
gust
MPH
rain 1hr
in
rain 24hr
in
rain mn
in
humidity
%
barometer
mb
20240623110038 58 360 0.0 1.0 0.00 0.00 0.00 75 1012.3
20240623104609 59 360 0.0 1.0 0.00 0.01 0.00 76 1012.4
20240623103036 59 360 0.0 2.0 0.00 0.01 0.00 76 1012.3
20240623101504 59 360 0.0 2.0 0.00 0.01 0.00 76 1012.5
20240623100031 59 360 1.0 3.0 0.00 0.01 0.00 75 1011.9
20240623094609 59 277 0.0 3.0 0.00 0.01 0.00 75 1011.9
20240623093041 59 274 0.0 0.0 0.00 0.01 0.00 75 1012.0
20240623091504 59 275 0.0 1.0 0.00 0.01 0.00 75 1012.0
20240623090050 60 275 0.0 0.0 0.00 0.01 0.00 75 1011.8
20240623084520 60 275 0.0 3.0 0.00 0.01 0.00 74 1012.0
20240623083058 60 303 0.0 1.0 0.00 0.01 0.00 74 1012.0
20240623081527 61 303 0.0 1.0 0.00 0.01 0.00 75 1012.2
20240623080112 61 303 0.0 2.0 0.00 0.01 0.00 75 1012.3
20240623074543 61 306 0.0 0.0 0.00 0.01 0.00 74 1012.5
20240623073008 61 306 0.0 0.0 0.00 0.01 0.00 74 1012.5
20240623071540 61 306 0.0 1.0 0.00 0.01 0.00 73 1012.7
20240623070032 61 306 0.0 0.0 0.00 0.01 0.00 73 1012.7
20240623064506 61 306 0.0 0.0 0.00 0.01 0.00 72 1012.8
20240623063049 62 306 0.0 0.0 0.00 0.01 0.00 73 1012.8
20240623061523 62 306 0.0 0.0 0.00 0.01 0.00 72 1012.7
20240623060102 62 306 0.0 2.0 0.00 0.01 0.00 71 1012.8
20240623054537 63 306 0.0 1.0 0.00 0.01 0.00 71 1012.7
20240623053017 63 306 0.0 0.0 0.00 0.01 0.00 71 1012.8
20240623051558 63 306 0.0 2.0 0.00 0.01 0.00 71 1012.8
20240623050022 64 306 0.0 0.0 0.00 0.01 0.00 70 1012.9
20240623044634 64 306 0.0 0.0 0.00 0.01 0.01 71 1012.8
20240623043051 64 306 0.0 0.0 0.00 0.01 0.01 69 1012.8
20240623041504 65 306 0.0 0.0 0.00 0.01 0.01 70 1012.6
20240623040042 65 306 0.0 0.0 0.00 0.01 0.01 68 1012.6
20240623034517 66 306 0.0 0.0 0.00 0.01 0.01 68 1012.5
20240623033049 67 306 0.0 0.0 0.00 0.01 0.01 66 1012.3
20240623031518 69 306 0.0 0.0 0.00 0.01 0.01 66 1012.0
20240623030054 70 306 0.0 0.0 0.00 0.01 0.01 66 1011.9
20240623024529 71 306 0.0 0.0 0.00 0.01 0.01 64 1011.9
20240623023037 72 306 0.0 1.0 0.00 0.01 0.01 62 1011.6
20240623021504 73 306 0.0 1.0 0.00 0.01 0.01 60 1011.5
20240623020100 73 306 0.0 2.0 0.00 0.01 0.01 59 1011.4
20240623014548 74 306 0.0 3.0 0.00 0.07 0.01 58 1011.4
20240623013005 75 302 0.0 2.0 0.00 0.07 0.01 57 1011.3
20240623011547 75 318 0.0 4.0 0.00 0.07 0.01 56 1011.3
20240623010006 76 321 0.0 6.0 0.00 0.14 0.01 55 1011.4
20240623004531 76 315 2.0 8.0 0.00 0.14 0.01 54 1011.1
20240623003048 76 340 0.0 8.0 0.00 0.14 0.01 54 1011.0
20240623001518 76 348 7.0 11.0 0.00 0.14 0.01 52 1010.8
20240623000109 77 342 2.0 10.0 0.00 0.14 0.01 53 1010.9
20240622234542 77 336 4.0 11.0 0.00 0.14 0.01 51 1010.7
20240622233019 77 348 3.0 8.0 0.00 0.14 0.01 53 1010.7
20240622231606 77 5 4.0 13.0 0.00 0.14 0.01 52 1010.5
20240622230028 77 317 4.0 12.0 0.00 0.14 0.01 51 1010.4
20240622224605 78 5 2.0 12.0 0.00 0.15 0.01 52 1010.5
20240622223023 78 327 3.0 10.0 0.00 0.15 0.01 53 1010.5
20240622221619 78 355 6.0 13.0 0.00 0.15 0.01 53 1010.6
20240622220031 79 11 10.0 19.0 0.00 0.15 0.01 52 1010.7
20240622214603 79 348 5.0 13.0 0.00 0.15 0.01 52 1010.7
20240622213031 79 296 4.0 15.0 0.00 0.15 0.01 50 1010.6
20240622211607 80 311 6.0 16.0 0.00 0.15 0.01 49 1010.4
20240622210045 81 344 4.0 11.0 0.00 0.15 0.01 51 1010.1
20240622204514 80 288 2.0 14.0 0.00 0.15 0.01 53 1009.9
20240622203039 80 5 4.0 13.0 0.00 0.15 0.01 52 1010.1
20240622201514 81 253 2.0 14.0 0.00 0.15 0.01 52 1010.1
20240622200052 80 340 2.0 14.0 0.00 0.15 0.01 55 1010.1
20240622194518 80 315 1.0 10.0 0.00 0.15 0.01 56 1009.8
20240622193057 79 315 2.0 12.0 0.00 0.15 0.01 56 1009.7
20240622191534 79 277 3.0 11.0 0.00 0.15 0.01 58 1009.7
20240622190108 78 327 3.0 11.0 0.00 0.15 0.01 59 1009.7
20240622184540 78 299 3.0 8.0 0.00 0.15 0.01 58 1009.7
20240622183002 78 355 1.0 13.0 0.00 0.15 0.01 61 1009.6
20240622181534 76 349 3.0 12.0 0.00 0.15 0.01 60 1009.8
20240622180004 76 5 3.0 12.0 0.00 0.15 0.01 63 1009.8
20240622174543 76 26 3.0 8.0 0.00 0.15 0.01 64 1009.8
20240622173108 75 325 4.0 16.0 0.00 0.15 0.01 67 1009.6
20240622171537 74 312 2.0 14.0 0.00 0.15 0.01 69 1009.8
20240622170103 72 340 4.0 17.0 0.00 0.15 0.01 72 1009.8
20240622164521 71 313 6.0 19.0 0.00 0.15 0.01 73 1009.8
20240622163057 71 270 5.0 11.0 0.00 0.15 0.01 74 1009.8
20240622161526 71 339 3.0 10.0 0.00 0.15 0.01 76 1009.6
20240622160106 70 277 2.0 10.0 0.00 0.15 0.01 77 1009.6
20240622154511 69 284 1.0 4.0 0.00 0.15 0.01 76 1009.6
20240622153056 69 276 2.0 8.0 0.00 0.15 0.01 76 1009.4
20240622151520 68 295 3.0 11.0 0.00 0.15 0.01 76 1009.2
20240622150104 68 325 2.0 10.0 0.00 0.15 0.01 76 1009.2
20240622144541 69 306 1.0 12.0 0.00 0.15 0.01 76 1009.2
20240622143003 69 293 1.0 10.0 0.00 0.15 0.01 76 1008.8
20240622141540 70 13 1.0 8.0 0.00 0.15 0.01 76 1008.5
20240622140007 70 290 0.0 8.0 0.00 0.15 0.01 76 1008.3
20240622134546 70 269 0.0 3.0 0.00 0.15 0.01 77 1008.3
20240622133019 70 277 1.0 4.0 0.00 0.15 0.01 77 1007.9
20240622131603 70 157 2.0 5.0 0.00 0.15 0.01 77 1007.8
20240622130027 69 11 0.0 0.0 0.00 0.15 0.01 77 1007.6
20240622124615 69 11 0.0 0.0 0.00 0.15 0.01 77 1007.8
20240622123037 69 11 0.0 2.0 0.00 0.15 0.01 77 1007.7
20240622121604 69 117 0.0 0.0 0.00 0.15 0.01 77 1007.7
20240622120048 68 117 0.0 0.0 0.00 0.15 0.01 77 1007.4
20240622114517 68 117 0.0 0.0 0.01 0.15 0.01 77 1007.4
20240622113104 68 117 0.0 0.0 0.01 0.15 0.01 77 1007.7
20240622111523 68 116 0.0 0.0 0.01 0.15 0.01 77 1007.7